Estación Meteorológica de la Universidad de Murcia
Estación Meteorológica de la Universidad de Murcia
Universidad de Murcia
 

Humedad relativaHumedad relativa

 

Máxima: 100 % a las 00:17:00 del día 12/11/2018
Mínima: 54,2 % a las 15:05:00 del día 12/11/2018

||Humedad máxima últimos meses|| ---- ||Humedad mínima últimos meses||


Humedad máxima

  • 1 - 100 % del día 12/11/2018
  • 2 - 100 % del día 11/11/2018
  • 3 - 79,4 % del día 10/11/2018
  • 4 - 97,5 % del día 09/11/2018
  • 5 - 90,9 % del día 08/11/2018
  • 6 - 85,5 % del día 07/11/2018
  • 7 - 80,6 % del día 06/11/2018
  • 8 - 95,7 % del día 05/11/2018
  • 9 - 86 % del día 04/11/2018
  • 10 - 85,7 % del día 03/11/2018
  • 11 - 87,4 % del día 02/11/2018
  • 12 - 90,7 % del día 01/11/2018
  • 13 - 98,9 % del día 31/10/2018
  • 14 - 100 % del día 30/10/2018
  • 15 - 54,5 % del día 29/10/2018
  • 16 - 67,4 % del día 28/10/2018
  • 17 - 90,7 % del día 27/10/2018
  • 18 - 96 % del día 26/10/2018
  • 19 - 94,1 % del día 25/10/2018
  • 20 - 98,4 % del día 24/10/2018
  • 21 - 98,9 % del día 23/10/2018
  • 22 - 96,5 % del día 22/10/2018
  • 23 - 94,4 % del día 21/10/2018
  • 24 - 100 % del día 20/10/2018
  • 25 - 99,7 % del día 19/10/2018
  • 26 - 99 % del día 18/10/2018
  • 27 - 95,2 % del día 17/10/2018
  • 28 - 94,1 % del día 16/10/2018
  • 29 - 81 % del día 15/10/2018
  • 30 - 98,6 % del día 14/10/2018
  • 31 - 99 % del día 13/10/2018
  • 32 - 98,2 % del día 12/10/2018
  • 33 - 99 % del día 11/10/2018
  • 34 - 93,6 % del día 10/10/2018
  • 35 - 98,4 % del día 09/10/2018
  • 36 - 92,4 % del día 08/10/2018
  • 37 - 88,9 % del día 07/10/2018
  • 38 - 93,8 % del día 06/10/2018
  • 39 - 86,4 % del día 05/10/2018
  • 40 - 81,6 % del día 04/10/2018
  • 41 - 89,3 % del día 03/10/2018
  • 42 - 90,5 % del día 02/10/2018
  • 43 - 91,4 % del día 01/10/2018
  • 44 - 92,4 % del día 30/09/2018
  • 45 - 97,3 % del día 29/09/2018
  • 46 - 89,4 % del día 28/09/2018
  • 47 - 96,9 % del día 27/09/2018
  • 48 - 92,7 % del día 26/09/2018
  • 49 - 97,1 % del día 25/09/2018
  • 50 - 97 % del día 21/09/2018
  • 51 - 97 % del día 20/09/2018
  • 52 - 98,4 % del día 19/09/2018
  • 53 - 98 % del día 18/09/2018
  • 54 - 94,6 % del día 17/09/2018
  • 55 - 97,1 % del día 16/09/2018
  • 56 - 99 % del día 15/09/2018
  • 57 - 95,4 % del día 14/09/2018

||Volver al inicio de la página||


Humedad mínima

  • 1 - 54,2 % del día 12/11/2018
  • 2 - 45,1 % del día 11/11/2018
  • 3 - 40,7 % del día 10/11/2018
  • 4 - 38,6 % del día 09/11/2018
  • 5 - 60,6 % del día 08/11/2018
  • 6 - 37,5 % del día 07/11/2018
  • 7 - 35,4 % del día 06/11/2018
  • 8 - 64,7 % del día 05/11/2018
  • 9 - 23,8 % del día 04/11/2018
  • 10 - 32,6 % del día 03/11/2018
  • 11 - 42,2 % del día 02/11/2018
  • 12 - 45,5 % del día 01/11/2018
  • 13 - 38,6 % del día 31/10/2018
  • 14 - 49,3 % del día 30/10/2018
  • 15 - 27 % del día 29/10/2018
  • 16 - 31,5 % del día 28/10/2018
  • 17 - 49,8 % del día 27/10/2018
  • 18 - 36 % del día 26/10/2018
  • 19 - 26,6 % del día 25/10/2018
  • 20 - 24,1 % del día 24/10/2018
  • 21 - 62 % del día 23/10/2018
  • 22 - 47,3 % del día 22/10/2018
  • 23 - 59,9 % del día 21/10/2018
  • 24 - 74,1 % del día 20/10/2018
  • 25 - 43,4 % del día 19/10/2018
  • 26 - 49,3 % del día 18/10/2018
  • 27 - 39 % del día 17/10/2018
  • 28 - 54,8 % del día 16/10/2018
  • 29 - 30,8 % del día 15/10/2018
  • 30 - 40,2 % del día 14/10/2018
  • 31 - 59,1 % del día 13/10/2018
  • 32 - 42,7 % del día 12/10/2018
  • 33 - 59,6 % del día 11/10/2018
  • 34 - 49,1 % del día 10/10/2018
  • 35 - 63 % del día 09/10/2018
  • 36 - 47,6 % del día 08/10/2018
  • 37 - 31,8 % del día 07/10/2018
  • 38 - 41,5 % del día 06/10/2018
  • 39 - 44,2 % del día 05/10/2018
  • 40 - 41,3 % del día 04/10/2018
  • 41 - 20,8 % del día 03/10/2018
  • 42 - 41,3 % del día 02/10/2018
  • 43 - 52,3 % del día 01/10/2018
  • 44 - 27,4 % del día 30/09/2018
  • 45 - 20,7 % del día 29/09/2018
  • 46 - 42,1 % del día 28/09/2018
  • 47 - 49,8 % del día 27/09/2018
  • 48 - 50,7 % del día 26/09/2018
  • 49 - 55,2 % del día 25/09/2018
  • 50 - 43 % del día 21/09/2018
  • 51 - 43 % del día 20/09/2018
  • 52 - 41,4 % del día 19/09/2018
  • 53 - 44,8 % del día 18/09/2018
  • 54 - 58,2 % del día 17/09/2018
  • 55 - 51,6 % del día 16/09/2018
  • 56 - 69,8 % del día 15/09/2018
  • 57 - 47,7 % del día 14/09/2018

 

|| Temperatura Ambiente|| Velocidad y dirección del viento|| Precipitación|| Radiación Solar Global y PAR|| Temperatura y humedad del suelo|| Presión atmosférica|| Más información|| Volver a la página principal|| Volver al inicio de la página||


Estación Meteorológica de la Universidad de Murcia
http://estacion.um.es/
Informacion actualizada a: 13/11/2018 a las 01:39:00